Nashua, NH

1:23 AM EDT on September 20, 2017 (GMT -0400)
Boire

Weather History for KASH - June, 2013

Change the Weather History Date:

Thursday, June 20, 2013

  Actual Average Record
Temperature  
Mean Temperature 64 °F -  
Max Temperature 79 °F 78 °F 99 °F (2012)
Min Temperature 48 °F 56 °F 38 °F (1952)
Degree Days  
Heating Degree Days 2    
Growing Degree Days 14 (Base 50)    
Moisture  
Dew Point 48 °F    
Average Humidity 58    
Maximum Humidity 89    
Minimum Humidity 31    
Precipitation  
Precipitation 0.00 in - - ()
Sea Level Pressure  
Sea Level Pressure 30.96 in    
Wind  
Wind Speed 1 mph (SSW)    
Max Wind Speed 8 mph    
Max Gust Speed -    
Visibility 10 miles    
Events      
Averages and records for this station are not official NWS values.
T = Trace of Precipitation, MM = Missing Value Source: NWS Daily Summary

Daily Weather History Graph

Daily Weather History Graph

Search for Another Location

Airport or City:

Trip Planner

Search our weather history database for the weather conditions in past years. The results will help you decide how hot, cold, wet, or windy it might be!

Date:

Astronomy

Jun. 20, 2013 Rise Set
Actual Time 5:07 AM EDT 8:27 PM EDT
Civil Twilight 4:32 AM EDT 9:02 PM EDT
Nautical Twilight 3:46 AM EDT 9:48 PM EDT
Astronomical Twilight 2:50 AM EDT 10:45 PM EDT
Moon 5:24 PM EDT 2:35 AM EDT
Length of Visible Light 16h 30m
Length of Day
15h 20m
Waxing Gibbous, 89% of the Moon is Illuminated
Jun 20
Waxing Gibbous
Jun 23
Full
Jun 30
Last Quarter
Jul 8
New
Jul 15
First Quarter

Hourly Weather History & Observations

Time (EDT) Temp. Dew Point Humidity Pressure Visibility Wind Dir Wind Speed Gust Speed Precip Events Conditions
12:51 AM 52.9 °F 48.9 °F 86% 30.92 in 10.0 mi Calm Calm - N/A   Clear
1:51 AM 52.0 °F 47.8 °F 86% 30.91 in 10.0 mi Calm Calm - N/A   Clear
2:51 AM 50.0 °F 46.9 °F 89% 30.93 in 10.0 mi Calm Calm - N/A   Clear
3:51 AM 50.0 °F 46.9 °F 89% 30.94 in 10.0 mi Calm Calm - N/A   Clear
4:51 AM 48.9 °F 45.9 °F 89% 30.95 in 10.0 mi Calm Calm - N/A   Clear
5:51 AM 48.9 °F 45.0 °F 86% 30.98 in 10.0 mi Calm Calm - N/A   Clear
6:51 AM 52.9 °F 46.9 °F 80% 30.99 in 10.0 mi Calm Calm - N/A   Clear
7:51 AM 57.9 °F 47.8 °F 69% 31.00 in 10.0 mi Calm Calm - N/A   Clear
8:51 AM 63.9 °F 50.0 °F 61% 31.01 in 10.0 mi Calm Calm - N/A   Clear
9:51 AM 68.9 °F 47.8 °F 47% 31.00 in 10.0 mi Calm Calm - N/A   Clear
10:51 AM 70.9 °F 45.9 °F 41% 31.00 in 10.0 mi Calm Calm - N/A   Clear
11:51 AM 73.9 °F 45.9 °F 37% 30.99 in 10.0 mi SSE 6.9 mph - N/A   Clear
12:51 PM 75.9 °F 47.8 °F 37% 30.98 in 10.0 mi Calm Calm - N/A   Clear
1:51 PM 77.9 °F 47.8 °F 35% 30.96 in 9.0 mi SSE 5.8 mph - N/A   Partly Cloudy
2:51 PM 79.0 °F 46.9 °F 32% 30.96 in 10.0 mi WSW 8.1 mph - N/A   Clear
3:51 PM 79.0 °F 46.9 °F 32% 30.95 in 10.0 mi Variable 4.6 mph - N/A   Partly Cloudy
4:51 PM 79.0 °F 45.9 °F 31% 30.94 in 10.0 mi Variable 5.8 mph - N/A   Scattered Clouds
5:51 PM 79.9 °F 47.8 °F 32% 30.93 in 10.0 mi Variable 3.5 mph - N/A   Clear
6:51 PM 79.0 °F 47.8 °F 33% 30.93 in 10.0 mi SSW 5.8 mph - N/A   Clear
7:51 PM 75.9 °F 50.9 °F 41% 30.94 in 10.0 mi Calm Calm - N/A   Clear
8:51 PM 70.0 °F 52.0 °F 53% 30.94 in 10.0 mi Calm Calm - N/A   Clear
9:51 PM 64.9 °F 52.9 °F 65% 30.96 in 10.0 mi Calm Calm - N/A   Clear
10:51 PM 66.9 °F 54.0 °F 63% 30.96 in 10.0 mi Variable 4.6 mph - N/A   Clear
11:51 PM 64.9 °F 54.0 °F 68% 30.97 in 10.0 mi Variable 3.5 mph - N/A   Clear